Wetterdaten: Sonntag, 31.05.2015
Datum Zeit Temp. A. Feuchte A. Luftdruck Regen Wind Richtung Richtung Sonnenschein ET UV Solar Taupunkt Windchill Windben Empfang
31.05.2015 00:00 12,7 C 84 % 1017,8 hPa 0,0 l/m 0,0 km/h (0 Bft) SO 143 0 min 0,000 mm 0,0 UV-I 0 W/m 10,1 C 12,7 C 0,0 km/h (0 Bft) 0,00 %
31.05.2015 00:15 12,4 C 84 % 1018,1 hPa 0,0 l/m 0,0 km/h (0 Bft) S 183 0 min 0,000 mm 0,0 UV-I 0 W/m 9,8 C 12,4 C 0,0 km/h (0 Bft) 0,00 %
31.05.2015 00:30 12,4 C 84 % 1018,2 hPa 0,0 l/m 0,0 km/h (0 Bft) S 178 0 min 0,000 mm 0,0 UV-I 0 W/m 9,8 C 12,4 C 0,0 km/h (0 Bft) 0,00 %
31.05.2015 00:45 12,5 C 84 % 1018,1 hPa 0,0 l/m 0,0 km/h (0 Bft) S 177 0 min 0,000 mm 0,0 UV-I 0 W/m 9,9 C 12,5 C 0,0 km/h (0 Bft) 0,00 %
31.05.2015 01:00 12,6 C 85 % 1018,1 hPa 0,0 l/m 0,0 km/h (0 Bft) S 182 0 min 0,000 mm 0,0 UV-I 0 W/m 10,1 C 12,6 C 0,0 km/h (0 Bft) 0,00 %
31.05.2015 01:15 12,6 C 85 % 1018,1 hPa 0,0 l/m 0,0 km/h (0 Bft) S 180 0 min 0,000 mm 0,0 UV-I 0 W/m 10,1 C 12,6 C 0,0 km/h (0 Bft) 0,00 %
31.05.2015 01:30 12,6 C 84 % 1018,2 hPa 0,0 l/m 0,0 km/h (0 Bft) S 180 0 min 0,000 mm 0,0 UV-I 0 W/m 10,0 C 12,6 C 0,0 km/h (0 Bft) 0,00 %
31.05.2015 01:45 12,4 C 85 % 1018,2 hPa 0,0 l/m 0,0 km/h (0 Bft) S 179 0 min 0,000 mm 0,0 UV-I 0 W/m 9,9 C 12,4 C 0,0 km/h (0 Bft) 0,00 %
31.05.2015 02:00 11,9 C 86 % 1018,4 hPa 0,0 l/m 0,0 km/h (0 Bft) S 177 0 min 0,000 mm 0,0 UV-I 0 W/m 9,6 C 11,9 C 0,0 km/h (0 Bft) 0,00 %
31.05.2015 02:15 11,7 C 88 % 1018,1 hPa 0,0 l/m 0,0 km/h (0 Bft) S 178 0 min 0,000 mm 0,0 UV-I 0 W/m 9,8 C 11,7 C 0,0 km/h (0 Bft) 0,00 %
31.05.2015 02:30 11,5 C 90 % 1018,3 hPa 0,0 l/m 0,0 km/h (0 Bft) S 181 0 min 0,000 mm 0,0 UV-I 0 W/m 9,9 C 11,5 C 0,0 km/h (0 Bft) 0,00 %
31.05.2015 02:45 11,2 C 90 % 1018,2 hPa 0,0 l/m 0,0 km/h (0 Bft) S 179 0 min 0,000 mm 0,0 UV-I 0 W/m 9,6 C 11,2 C 0,0 km/h (0 Bft) 0,00 %
31.05.2015 03:00 11,2 C 92 % 1018,1 hPa 0,0 l/m 0,0 km/h (0 Bft) S 182 0 min 0,000 mm 0,0 UV-I 0 W/m 9,9 C 11,2 C 0,0 km/h (0 Bft) 0,00 %
31.05.2015 03:15 11,4 C 91 % 1018,1 hPa 0,0 l/m 0,0 km/h (0 Bft) S 183 0 min 0,000 mm 0,0 UV-I 0 W/m 10,0 C 11,4 C 0,0 km/h (0 Bft) 0,00 %
31.05.2015 03:30 11,5 C 91 % 1018,1 hPa 0,0 l/m 0,0 km/h (0 Bft) S 181 0 min 0,000 mm 0,0 UV-I 0 W/m 10,1 C 11,5 C 0,0 km/h (0 Bft) 0,00 %
31.05.2015 03:45 11,5 C 92 % 1018,0 hPa 0,0 l/m 0,0 km/h (0 Bft) S 182 0 min 0,000 mm 0,0 UV-I 0 W/m 10,2 C 11,5 C 0,0 km/h (0 Bft) 0,00 %
31.05.2015 04:00 11,4 C 93 % 1017,8 hPa 0,0 l/m 0,0 km/h (0 Bft) S 180 0 min 0,000 mm 0,0 UV-I 0 W/m 10,3 C 11,4 C 0,0 km/h (0 Bft) 0,00 %
31.05.2015 04:15 11,4 C 93 % 1017,9 hPa 0,0 l/m 0,0 km/h (0 Bft) S 182 0 min 0,000 mm 0,0 UV-I 0 W/m 10,3 C 11,4 C 0,0 km/h (0 Bft) 0,00 %
31.05.2015 04:30 11,3 C 94 % 1018,0 hPa 0,0 l/m 0,0 km/h (0 Bft) S 179 0 min 0,000 mm 0,0 UV-I 0 W/m 10,4 C 11,3 C 0,0 km/h (0 Bft) 0,00 %
31.05.2015 04:45 11,3 C 94 % 1018,0 hPa 0,0 l/m 0,0 km/h (0 Bft) S 174 0 min 0,000 mm 0,0 UV-I 0 W/m 10,4 C 11,3 C 0,0 km/h (0 Bft) 0,00 %
31.05.2015 05:00 11,2 C 94 % 1018,1 hPa 0,0 l/m 0,0 km/h (0 Bft) S 178 0 min 0,000 mm 0,0 UV-I 0 W/m 10,3 C 11,2 C 0,0 km/h (0 Bft) 0,00 %
31.05.2015 05:15 11,1 C 95 % 1018,3 hPa 0,0 l/m 0,0 km/h (0 Bft) S-SW 194 0 min 0,000 mm 0,0 UV-I 0 W/m 10,3 C 11,1 C 0,0 km/h (0 Bft) 0,00 %
31.05.2015 05:30 11,3 C 94 % 1018,1 hPa 0,0 l/m 0,0 km/h (0 Bft) S 180 0 min 0,000 mm 0,0 UV-I 7 W/m 10,4 C 11,3 C 0,0 km/h (0 Bft) 0,00 %
31.05.2015 05:45 11,6 C 94 % 1017,8 hPa 0,0 l/m 0,0 km/h (0 Bft) S 187 0 min 0,000 mm 0,0 UV-I 29 W/m 10,7 C 11,6 C 0,0 km/h (0 Bft) 0,00 %
31.05.2015 06:00 11,8 C 94 % 1017,8 hPa 0,0 l/m 0,0 km/h (0 Bft) S-SO 168 0 min 0,000 mm 0,0 UV-I 54 W/m 10,9 C 11,8 C 0,0 km/h (0 Bft) 0,00 %
31.05.2015 06:15 12,1 C 93 % 1017,9 hPa 0,0 l/m 0,0 km/h (0 Bft) S 186 0 min 0,000 mm 1,0 UV-I 64 W/m 11,0 C 12,1 C 0,0 km/h (0 Bft) 0,00 %
31.05.2015 06:30 13,1 C 90 % 1017,6 hPa 0,0 l/m 0,0 km/h (0 Bft) S 173 0 min 0,000 mm 1,0 UV-I 84 W/m 11,5 C 13,1 C 0,0 km/h (0 Bft) 0,00 %
31.05.2015 06:45 14,4 C 82 % 1017,5 hPa 0,0 l/m 0,0 km/h (0 Bft) S 177 15 min 0,000 mm 1,0 UV-I 139 W/m 11,4 C 14,4 C 0,0 km/h (0 Bft) 0,00 %
31.05.2015 07:00 14,2 C 82 % 1017,9 hPa 0,0 l/m 0,0 km/h (0 Bft) SO 141 15 min 0,000 mm 1,0 UV-I 368 W/m 11,2 C 14,2 C 0,0 km/h (0 Bft) 0,00 %
31.05.2015 07:15 14,6 C 80 % 1017,8 hPa 0,0 l/m 0,0 km/h (0 Bft) O 101 15 min 0,000 mm 1,0 UV-I 367 W/m 11,2 C 14,6 C 0,0 km/h (0 Bft) 0,00 %
31.05.2015 07:30 14,9 C 79 % 1017,8 hPa 0,0 l/m 0,0 km/h (0 Bft) O-NO 58 15 min 0,000 mm 1,0 UV-I 311 W/m 11,3 C 14,9 C 0,0 km/h (0 Bft) 0,00 %
31.05.2015 07:45 15,5 C 75 % 1017,7 hPa 0,0 l/m 5,8 km/h (2 Bft) O 93 15 min 0,000 mm 2,0 UV-I 421 W/m 11,1 C 15,5 C 7,9 km/h (2 Bft) 0,00 %
31.05.2015 08:00 16,2 C 69 % 1017,4 hPa 0,0 l/m 1,4 km/h (1 Bft) O-SO 109 15 min 0,000 mm 2,0 UV-I 381 W/m 10,5 C 16,2 C 4,0 km/h (1 Bft) 0,00 %
31.05.2015 08:15 16,4 C 66 % 1017,6 hPa 0,0 l/m 5,4 km/h (1 Bft) O 93 15 min 0,000 mm 2,0 UV-I 410 W/m 10,0 C 16,4 C 7,9 km/h (2 Bft) 0,00 %
31.05.2015 08:30 16,5 C 64 % 1017,6 hPa 0,0 l/m 1,4 km/h (1 Bft) O 89 15 min 0,000 mm 2,0 UV-I 473 W/m 9,7 C 16,5 C 4,0 km/h (1 Bft) 0,00 %
31.05.2015 08:45 17,2 C 64 % 1017,6 hPa 0,0 l/m 0,0 km/h (0 Bft) O 99 15 min 0,000 mm 2,0 UV-I 502 W/m 10,3 C 17,2 C 0,0 km/h (0 Bft) 0,00 %
31.05.2015 09:00 17,5 C 62 % 1017,4 hPa 0,0 l/m 2,2 km/h (1 Bft) O-SO 112 15 min 0,000 mm 3,0 UV-I 539 W/m 10,1 C 17,5 C 4,0 km/h (1 Bft) 0,00 %
31.05.2015 09:15 17,7 C 62 % 1017,3 hPa 0,0 l/m 1,8 km/h (1 Bft) O 97 15 min 0,000 mm 3,0 UV-I 557 W/m 10,3 C 17,7 C 4,0 km/h (1 Bft) 0,00 %
31.05.2015 09:30 17,9 C 58 % 1017,1 hPa 0,0 l/m 6,5 km/h (2 Bft) O-SO 108 15 min 0,000 mm 3,0 UV-I 582 W/m 9,5 C 17,9 C 7,9 km/h (2 Bft) 0,00 %
31.05.2015 09:45 18,5 C 59 % 1017,0 hPa 0,0 l/m 0,7 km/h (0 Bft) NO 36 15 min 0,000 mm 3,0 UV-I 555 W/m 10,3 C 18,5 C 4,0 km/h (1 Bft) 0,00 %
31.05.2015 10:00 18,5 C 54 % 1017,0 hPa 0,0 l/m 0,0 km/h (0 Bft) S 188 15 min 0,000 mm 4,0 UV-I 541 W/m 9,0 C 18,5 C 0,0 km/h (0 Bft) 0,00 %
31.05.2015 10:15 19,1 C 53 % 1016,9 hPa 0,0 l/m 11,9 km/h (2 Bft) O-SO 109 15 min 0,000 mm 4,0 UV-I 646 W/m 9,3 C 17,0 C 15,8 km/h (3 Bft) 0,00 %
31.05.2015 10:30 19,1 C 57 % 1016,7 hPa 0,0 l/m 4,0 km/h (1 Bft) O 79 15 min 0,000 mm 4,0 UV-I 678 W/m 10,4 C 19,1 C 7,9 km/h (2 Bft) 0,00 %
31.05.2015 10:45 19,5 C 53 % 1016,6 hPa 0,0 l/m 1,8 km/h (1 Bft) SO 140 15 min 0,000 mm 4,0 UV-I 699 W/m 9,7 C 19,5 C 4,0 km/h (1 Bft) 0,00 %
31.05.2015 11:00 20,0 C 52 % 1016,4 hPa 0,0 l/m 0,0 km/h (0 Bft) S 184 15 min 0,000 mm 5,0 UV-I 701 W/m 9,8 C 20,0 C 0,0 km/h (0 Bft) 0,00 %
31.05.2015 11:15 19,9 C 55 % 1016,4 hPa 0,0 l/m 0,0 km/h (0 Bft) S-SO 163 15 min 0,000 mm 5,0 UV-I 726 W/m 10,6 C 19,9 C 0,0 km/h (0 Bft) 0,00 %
31.05.2015 11:30 20,7 C 55 % 1016,3 hPa 0,0 l/m 5,4 km/h (1 Bft) NO 35 15 min 0,000 mm 6,0 UV-I 782 W/m 11,3 C 20,7 C 7,9 km/h (2 Bft) 0,00 %
31.05.2015 11:45 20,5 C 54 % 1016,1 hPa 0,0 l/m 5,8 km/h (2 Bft) O-NO 74 15 min 0,000 mm 6,0 UV-I 776 W/m 10,9 C 20,5 C 7,9 km/h (2 Bft) 0,00 %
31.05.2015 12:00 21,1 C 48 % 1016,0 hPa 0,0 l/m 2,9 km/h (1 Bft) O-SO 115 15 min 0,000 mm 6,0 UV-I 804 W/m 9,7 C 21,1 C 4,0 km/h (1 Bft) 0,00 %
31.05.2015 12:15 21,6 C 46 % 1015,5 hPa 0,0 l/m 3,2 km/h (1 Bft) O 97 15 min 0,000 mm 6,0 UV-I 818 W/m 9,5 C 21,6 C 4,0 km/h (1 Bft) 0,00 %
31.05.2015 12:30 22,1 C 48 % 1015,6 hPa 0,0 l/m 1,8 km/h (1 Bft) SO 128 15 min 0,000 mm 6,0 UV-I 840 W/m 10,6 C 22,1 C 4,0 km/h (1 Bft) 0,00 %
31.05.2015 12:45 22,1 C 49 % 1015,5 hPa 0,0 l/m 9,4 km/h (2 Bft) O-SO 103 15 min 0,000 mm 6,0 UV-I 845 W/m 10,9 C 21,1 C 11,9 km/h (2 Bft) 0,00 %
31.05.2015 13:00 22,1 C 48 % 1015,2 hPa 0,0 l/m 3,2 km/h (1 Bft) O-SO 116 15 min 0,000 mm 6,0 UV-I 824 W/m 10,6 C 22,1 C 4,0 km/h (1 Bft) 0,00 %
31.05.2015 13:15 22,4 C 46 % 1015,2 hPa 0,0 l/m 2,2 km/h (1 Bft) W-SW 256 15 min 0,000 mm 5,0 UV-I 786 W/m 10,2 C 22,4 C 4,0 km/h (1 Bft) 0,00 %
31.05.2015 13:30 22,6 C 44 % 1015,0 hPa 0,0 l/m 3,2 km/h (1 Bft) O-SO 114 15 min 0,000 mm 5,0 UV-I 876 W/m 9,7 C 22,6 C 7,9 km/h (2 Bft) 0,00 %
31.05.2015 13:45 23,0 C 44 % 1014,9 hPa 0,0 l/m 4,3 km/h (1 Bft) NO 47 15 min 0,000 mm 5,0 UV-I 791 W/m 10,1 C 23,0 C 7,9 km/h (2 Bft) 0,00 %
31.05.2015 14:00 22,6 C 46 % 1014,6 hPa 0,0 l/m 2,2 km/h (1 Bft) O 100 15 min 0,000 mm 5,0 UV-I 812 W/m 10,4 C 22,6 C 4,0 km/h (1 Bft) 0,00 %
31.05.2015 14:15 22,7 C 42 % 1014,4 hPa 0,0 l/m 6,5 km/h (2 Bft) O 99 15 min 0,000 mm 5,0 UV-I 710 W/m 9,1 C 22,7 C 7,9 km/h (2 Bft) 0,00 %
31.05.2015 14:30 23,1 C 42 % 1014,2 hPa 0,0 l/m 6,5 km/h (2 Bft) O-SO 123 15 min 0,000 mm 4,0 UV-I 821 W/m 9,5 C 23,1 C 7,9 km/h (2 Bft) 0,00 %
31.05.2015 14:45 23,2 C 43 % 1014,2 hPa 0,0 l/m 2,9 km/h (1 Bft) O 94 15 min 0,000 mm 4,0 UV-I 650 W/m 9,9 C 23,2 C 4,0 km/h (1 Bft) 0,00 %
31.05.2015 15:00 23,0 C 41 % 1014,0 hPa 0,0 l/m 4,7 km/h (1 Bft) O 95 15 min 0,000 mm 4,0 UV-I 696 W/m 9,0 C 23,0 C 7,9 km/h (2 Bft) 0,00 %
31.05.2015 15:15 23,4 C 41 % 1013,7 hPa 0,0 l/m 0,7 km/h (0 Bft) O 101 15 min 0,000 mm 4,0 UV-I 762 W/m 9,4 C 23,4 C 4,0 km/h (1 Bft) 0,00 %
31.05.2015 15:30 23,1 C 42 % 1013,7 hPa 0,0 l/m 2,9 km/h (1 Bft) O-SO 122 15 min 0,000 mm 4,0 UV-I 791 W/m 9,5 C 23,1 C 4,0 km/h (1 Bft) 0,00 %
31.05.2015 15:45 23,4 C 43 % 1013,3 hPa 0,0 l/m 4,7 km/h (1 Bft) O-SO 110 15 min 0,000 mm 4,0 UV-I 852 W/m 10,1 C 23,4 C 7,9 km/h (2 Bft) 0,00 %
31.05.2015 16:00 23,3 C 41 % 1013,5 hPa 0,0 l/m 3,2 km/h (1 Bft) NO 51 15 min 0,000 mm 3,0 UV-I 778 W/m 9,3 C 23,3 C 7,9 km/h (2 Bft) 0,00 %
31.05.2015 16:15 22,8 C 42 % 1013,2 hPa 0,0 l/m 9,4 km/h (2 Bft) O-SO 110 15 min 0,000 mm 2,0 UV-I 753 W/m 9,2 C 21,9 C 11,9 km/h (2 Bft) 0,00 %
31.05.2015 16:30 22,8 C 44 % 1013,1 hPa 0,0 l/m 3,2 km/h (1 Bft) O-SO 104 15 min 0,000 mm 2,0 UV-I 680 W/m 9,9 C 22,8 C 4,0 km/h (1 Bft) 0,00 %
31.05.2015 16:45 22,8 C 43 % 1012,8 hPa 0,0 l/m 5,8 km/h (2 Bft) O 100 15 min 0,000 mm 2,0 UV-I 660 W/m 9,6 C 22,8 C 7,9 km/h (2 Bft) 0,00 %
31.05.2015 17:00 22,6 C 43 % 1012,7 hPa 0,0 l/m 5,4 km/h (1 Bft) O 84 15 min 0,000 mm 2,0 UV-I 552 W/m 9,4 C 22,6 C 7,9 km/h (2 Bft) 0,00 %
31.05.2015 17:15 22,7 C 43 % 1012,7 hPa 0,0 l/m 10,8 km/h (2 Bft) O-SO 104 15 min 0,000 mm 2,0 UV-I 580 W/m 9,5 C 21,4 C 11,9 km/h (2 Bft) 0,00 %
31.05.2015 17:30 22,4 C 43 % 1012,7 hPa 0,0 l/m 1,4 km/h (1 Bft) O-SO 106 15 min 0,000 mm 1,0 UV-I 561 W/m 9,2 C 22,4 C 4,0 km/h (1 Bft) 0,00 %
31.05.2015 17:45 22,0 C 46 % 1012,6 hPa 0,0 l/m 6,8 km/h (2 Bft) O-SO 111 15 min 0,000 mm 1,0 UV-I 358 W/m 9,8 C 21,9 C 11,9 km/h (2 Bft) 0,00 %
31.05.2015 18:00 21,7 C 45 % 1012,6 hPa 0,0 l/m 3,2 km/h (1 Bft) O-SO 111 0 min 0,000 mm 1,0 UV-I 221 W/m 9,2 C 21,7 C 4,0 km/h (1 Bft) 0,00 %
31.05.2015 18:15 21,6 C 48 % 1012,3 hPa 0,0 l/m 1,8 km/h (1 Bft) O-NO 69 0 min 0,000 mm 1,0 UV-I 182 W/m 10,1 C 21,6 C 4,0 km/h (1 Bft) 0,00 %
31.05.2015 18:30 21,5 C 47 % 1012,1 hPa 0,0 l/m 0,7 km/h (0 Bft) O 82 0 min 0,000 mm 1,0 UV-I 180 W/m 9,7 C 21,5 C 4,0 km/h (1 Bft) 0,00 %
31.05.2015 18:45 21,2 C 50 % 1012,3 hPa 0,0 l/m 0,0 km/h (0 Bft) O-SO 116 15 min 0,000 mm 1,0 UV-I 187 W/m 10,4 C 21,2 C 0,0 km/h (0 Bft) 0,00 %
31.05.2015 19:00 21,0 C 53 % 1012,4 hPa 0,0 l/m 0,0 km/h (0 Bft) O 88 0 min 0,000 mm 1,0 UV-I 143 W/m 11,0 C 21,0 C 0,0 km/h (0 Bft) 0,00 %
31.05.2015 19:15 20,8 C 51 % 1012,4 hPa 0,0 l/m 0,0 km/h (0 Bft) SW 229 0 min 0,000 mm 1,0 UV-I 105 W/m 10,3 C 20,8 C 0,0 km/h (0 Bft) 0,00 %
31.05.2015 19:30 20,6 C 54 % 1012,2 hPa 0,0 l/m 0,0 km/h (0 Bft) S 176 0 min 0,000 mm 0,0 UV-I 86 W/m 11,0 C 20,6 C 0,0 km/h (0 Bft) 0,00 %
31.05.2015 19:45 20,2 C 56 % 1012,2 hPa 0,0 l/m 0,0 km/h (0 Bft) S 178 0 min 0,000 mm 0,0 UV-I 55 W/m 11,1 C 20,2 C 0,0 km/h (0 Bft) 0,00 %
31.05.2015 20:00 19,9 C 58 % 1012,3 hPa 0,0 l/m 0,0 km/h (0 Bft) S 173 0 min 0,000 mm 0,0 UV-I 34 W/m 11,4 C 19,9 C 0,0 km/h (0 Bft) 0,00 %
31.05.2015 20:15 19,5 C 62 % 1012,7 hPa 0,0 l/m 0,0 km/h (0 Bft) S 178 0 min 0,000 mm 0,0 UV-I 22 W/m 12,0 C 19,5 C 0,0 km/h (0 Bft) 0,00 %
31.05.2015 20:30 19,1 C 62 % 1012,7 hPa 0,0 l/m 0,0 km/h (0 Bft) S-SW 204 0 min 0,000 mm 0,0 UV-I 5 W/m 11,6 C 19,1 C 0,0 km/h (0 Bft) 0,00 %
31.05.2015 20:45 19,0 C 63 % 1012,8 hPa 0,0 l/m 0,0 km/h (0 Bft) S 173 0 min 0,000 mm 0,0 UV-I 0 W/m 11,8 C 19,0 C 0,0 km/h (0 Bft) 0,00 %
31.05.2015 21:00 18,8 C 64 % 1013,1 hPa 0,0 l/m 0,0 km/h (0 Bft) S 177 0 min 0,000 mm 0,0 UV-I 0 W/m 11,8 C 18,8 C 0,0 km/h (0 Bft) 0,00 %
31.05.2015 21:15 18,3 C 65 % 1013,3 hPa 0,0 l/m 0,0 km/h (0 Bft) S 177 0 min 0,000 mm 0,0 UV-I 0 W/m 11,6 C 18,3 C 0,0 km/h (0 Bft) 0,00 %
31.05.2015 21:30 17,9 C 68 % 1013,3 hPa 0,0 l/m 0,0 km/h (0 Bft) S 186 0 min 0,000 mm 0,0 UV-I 0 W/m 11,9 C 17,9 C 0,0 km/h (0 Bft) 0,00 %
31.05.2015 21:45 17,7 C 70 % 1013,6 hPa 0,0 l/m 0,0 km/h (0 Bft) S 187 0 min 0,000 mm 0,0 UV-I 0 W/m 12,2 C 17,7 C 0,0 km/h (0 Bft) 0,00 %
31.05.2015 22:00 17,8 C 67 % 1014,0 hPa 0,0 l/m 0,0 km/h (0 Bft) S 190 0 min 0,000 mm 0,0 UV-I 0 W/m 11,6 C 17,8 C 0,0 km/h (0 Bft) 0,00 %
31.05.2015 22:15 18,0 C 67 % 1014,3 hPa 0,0 l/m 0,0 km/h (0 Bft) S 180 0 min 0,000 mm 0,0 UV-I 0 W/m 11,8 C 18,0 C 0,0 km/h (0 Bft) 0,00 %
31.05.2015 22:30 17,7 C 65 % 1014,8 hPa 0,0 l/m 0,4 km/h (0 Bft) S 173 0 min 0,000 mm 0,0 UV-I 0 W/m 11,0 C 17,7 C 4,0 km/h (1 Bft) 0,00 %
31.05.2015 22:45 17,1 C 79 % 1014,9 hPa 1,2 l/m 2,2 km/h (1 Bft) W-SW 256 0 min 0,000 mm 0,0 UV-I 0 W/m 13,4 C 17,1 C 4,0 km/h (1 Bft) 0,00 %
31.05.2015 23:00 15,1 C 82 % 1014,9 hPa 0,3 l/m 1,4 km/h (1 Bft) N 5 0 min 0,000 mm 0,0 UV-I 0 W/m 12,0 C 15,1 C 4,0 km/h (1 Bft) 0,00 %
31.05.2015 23:15 14,8 C 85 % 1015,3 hPa 0,3 l/m 0,0 km/h (0 Bft) S 182 0 min 0,000 mm 0,0 UV-I 0 W/m 12,3 C 14,8 C 0,0 km/h (0 Bft) 0,00 %
31.05.2015 23:30 14,9 C 84 % 1015,0 hPa 0,0 l/m 0,0 km/h (0 Bft) O-NO 73 0 min 0,000 mm 0,0 UV-I 0 W/m 12,2 C 14,9 C 0,0 km/h (0 Bft) 0,00 %
_ Min-Zeit 05:15 15:00 18:30 - 00:00 - - - - - - 10:00 05:15 00:00 00:00
Minimum _ 11,1 C 41 % 1012,1 hPa - 0,0 km/h (0 Bft) - - - - - - 9,0 C 11,1 C 0,0 km/h (0 Bft) 0,00 %
_ Max-Zeit 15:15 05:15 02:00 22:45 10:15 - - 06:45 00:00 11:30 13:30 22:45 15:15 10:15 00:00
Maximum _ 23,4 C 95 % 1018,4 hPa 1,2 l/m 11,9 km/h
O-SO (2 Bft)
- - 15 min 0,000 mm 6,0 UV-I 876 W/m 13,4 C 23,4 C 15,8 km/h
O-SO (3 Bft)
0,00 %
Durchschnitt _ 17,6 C 66 % 1015,7 hPa #1,8 l/m 1,8 km/h (1 Bft) O-SO - #11:30 h #0,000 mm 3,1 UV-I 495 W/m 10,4 C 17,5 C 2,9 km/h (1 Bft) 0,00 %